Location: Krakow
(50.0830°N, 19.9170°E)
Time: 18:06:49
(UTC+01:00)

Transit 2A - Pass Details

Date: 14 February 2023
Orbit: 591 x 964 km, 66.7° (Epoch: 21 March)

Event Time Altitude Azimuth Distance (km) Brightness Sun altitude
Rises 12:48:41 0° 160° (SSE) 3,033 9.9 25.8°
Reaches altitude 10° 12:51:50 10° 137° (SE) 2,197 8.9 25.7°
Maximum altitude 12:54:37 15° 103° (ESE) 1,941 8.2 25.5°
Drops below altitude 10° 12:57:34 10° 69° (ENE) 2,346 8.3 25.4°
Sets 13:01:06 0° 48° (NE) 3,368 8.8 25.2°
